Location: Peebles
(55.6412°N, 3.1714°W)
Time: 06:27:58
(UTC+01:00)

METEOR 2-8 DEB - Pass Details

Date: 03 July 2022
Orbit: 792 x 830 km, 82.5° (Epoch: 08 August)

Event Time Altitude Azimuth Distance (km) Brightness Sun altitude
Rises 01:19:19 0° 253° (WSW) 3,326 ? -11.4°
Reaches altitude 10° 01:22:56 10° 278° (W) 2,391 ? -11.4°
Maximum altitude 01:25:46 14° 310° (NW) 2,103 ? -11.4°
Drops below altitude 10° 01:28:35 10° 342° (NNW) 2,386 ? -11.3°
Sets 01:32:12 0° 7° (N) 3,315 ? -11.3°
